Location: Seasalter
(51.3333°N, 1.0167°E)
Time: 05:36:30
(UTC+00:00)

ATLAS 5 CENTAUR R/B - Pass Details

Date: 26 April 2024
Orbit: 421 x 1170 km, 63.3° (Epoch: 18 May)

Event Time Altitude Azimuth Distance (km) Brightness Sun altitude
Rises 22:09:01 0° 310° (NW) 2,675 6.0 -20.9°
Reaches altitude 10° 22:11:30 10° 328° (NNW) 1,891 5.2 -21.1°
Maximum altitude 22:14:46 21° 18° (NNE) 1,455 3.9 -21.3°
Drops below altitude 10° 22:18:33 10° 67° (ENE) 2,229 4.4 -21.6°
Sets 22:21:46 0° 83° (E) 3,316 5.1 -21.8°
Enters shadow 22:21:49 - 83° (E) 3,334 5.1 -21.8°
